DMC3-FM2

Last updated on Sat Sep 05 2026 00:02:50 GMT+0000 (Coordinated Universal Time)

1 40716U 15032B 26247.76308132 -.00000134 00000+0 -95121-5 0 9992 2 40716 97.6390 111.4026 0006541 143.9676 216.1981 14.85816227601729
UTC large
Height (km)
Speed (km/s)
/
Latitude / Longitude
Inclination (degrees)
Orbital Period (minutes)
Azimuth
Elevation
Range (km)
Doppler Factor

Next 0 passes for location: London (51.5072 / 0.1276)

No passes found over London.
DMC3-FM2